User: anonymous   Login
Location: Gro�sch�nbrunn
(49.5760°N, 11.8868°E)
Time: 10:09:01
(UTC+00:00)
Language:

Cosmos 1844 Rocket - Orbit

View from above orbital plane
View from above orbital plane
View from above satellite
View from above satellite

Ground track
Ground track

The orbit data is extracted from the following two-line orbital elements,

1 17974U 87041B   20336.71266762 -.00000272  00000-0 -11069-3 0  9992
2 17974  71.0068 127.6553 0016384 265.0236 105.6274 14.17270392735508
Epoch (UTC): 01 December 2020 17:06:14
Eccentricity: 0.0016384
inclination: 71.0068°
perigee height: 823 km
apogee height: 846 km
right ascension of ascending node: 127.6553°
argument of perigee: 265.0236°
revolutions per day: 14.17270392
mean anomaly at epoch: 105.6274°
orbit number at epoch: 73550

The dashed part of the orbit path shows where the satellite is in the earth's shadow,  

DLR